Regional Weather Roundup
Issued by NWS

Home | Current Version | Previous Version | Graphics & Text | Print | Product List | Glossary Off
Versions: 1 2 3 4 5 6 7 8 9 10 11 12 13 14 15 16 17 18 19 20 21 22 23 24 25 26 27 28 29 30 31 32 33 34 35 36 37 38 39 40 41 42 43 44 45 46 47 48 49 50

274
ASUS43 KMPX 192310
RWRMN
WEATHER ROUNDUP FOR MINNESOTA
NATIONAL WEATHER SERVICE TWIN CITIES/CHANHASSEN MN
500 PM CST SUN NOV 19 2017


NOTE: "FAIR" INDICATES FEW OR NO CLOUDS BELOW 12,000 FEET WITH NO
SIGNIFICANT WEATHER AND/OR OBSTRUCTIONS TO VISIBILITY. N/A MEANS
CURRENT SKY AND/OR WEATHER CONDITIONS ARE NOT AVAILABLE.

MNZ060>063-068>070-200000-
   Twin Cities Metro

CITY           SKY/WX    TMP DP  RH WIND       PRES   REMARKS
TWIN CITIES    PTCLDY    39  24  55 S6        29.87F
ST PAUL        CLEAR     35  24  64 SE3       29.89F
CRYSTAL        CLEAR     36  21  54 CALM      29.86F
BLAINE         PTCLDY    36  25  64 S5        29.87F
LAKEVILLE      CLEAR     34  25  69 CALM      29.88F
EDEN PRAIRIE   CLEAR     38  24  57 S7        29.86F
SOUTH ST PAUL  CLEAR     38  23  54 CALM      29.88F
LAKE ELMO      FAIR      32  23  69 CALM      29.89F
$$
MNZ001>005-007-008-013>017-022>024-027-028-200000-
   Northwest Minnesota

CITY           SKY/WX    TMP DP  RH WIND       PRES   REMARKS
BEMIDJI        CLEAR     26  19  74 CALM      29.77F
HALLOCK        CLEAR     21  19  93 CALM      29.79S
ROSEAU         CLEAR     25  18  74 E3        29.78F
WARROAD        CLOUDY    21  16  79 CALM      29.79F
THIEF RVR FALL CLEAR     27  23  85 CALM      29.79S
CROOKSTON      CLEAR     28  25  86 NW3       29.79F
FOSSTON        CLEAR     27  19  74 CALM      29.78F
DETROIT LAKES  CLOUDY    36  27  69 S3        29.79F
MOORHEAD       CLEAR     37  25  60 SW5       29.79F
PARK RAPIDS    CLEAR     31  23  72 S6        29.78F WCI  25
MAHNOMEN       FAIR      31  25  76 SW7       29.77F WCI  25
$$
MNZ006-009>011-018-025>026-200000-
   North Central Minnesota

CITY           SKY/WX    TMP DP  RH WIND       PRES   REMARKS
BAUDETTE       CLEAR     20  12  71 SE3       29.79F
FLAG ISLAND    CLOUDY    19  16  86 S5        29.78S WCI  13
INTL FALLS     CLOUDY    20  11  68 S5        29.80F WCI  13
WASKISH        CLEAR     23  16  74 E3        29.79F
BIG FORK       CLEAR     19  12  73 CALM      29.80F
LONGVILLE      CLEAR     27  18  69 CALM      29.80F
GRAND RAPIDS   CLEAR     24  16  71 CALM      29.82F
CRANE LAKE     CLOUDY    18  12  79 CALM      29.84S
ORR            CLOUDY    18  12  79 CALM      29.79S
COOK           CLOUDY    18  16  93 CALM      29.82F
WALKER         FAIR      28  21  75 CALM      29.78F
$$
MNZ012-019>021-037-200000-
   Northeast Minnesota

CITY           SKY/WX    TMP DP  RH WIND       PRES   REMARKS
DULUTH         MOCLDY    24  15  68 SW6       29.82S WCI  17
ELY            CLOUDY    18  12  79 W3        29.81S
HIBBING        CLOUDY    19  13  77 CALM      29.82S
EVELETH        CLOUDY    18  12  79 CALM      29.83F
DULUTH HARBOR  CLOUDY    28  18  64 CALM      29.88S
TWO HARBORS    CLOUDY    25  18  74 CALM      29.83S
SILVER BAY     MOCLDY    21  16  79 CALM      29.83R
GRAND MARAIS     N/A     24  11  57 NW6       29.85S WCI  17
G MARAIS ARPRT CLOUDY    16   7  67 CALM      29.77S
$$
MNZ029>031-032-039>041-046>048-054>057-064-200000-
   West Central Minnesota

CITY           SKY/WX    TMP DP  RH WIND       PRES   REMARKS
FERGUS FALLS   CLOUDY    34  25  69 W5        29.82S WCI  30
WHEATON        CLOUDY    43  23  45 SW5       29.83F
MORRIS         CLOUDY    37  25  60 W7        29.81F
ALEXANDRIA     CLEAR     37  27  67 SW8       29.81F
ELBOW LAKE     FAIR      37  25  62 SW9       29.81S HAZE
WADENA         CLOUDY    32  25  74 CALM      29.79F
GLENWOOD       CLEAR     36  27  69 SW7       29.82F
APPLETON       CLOUDY    45  23  42 SW9       29.83S
BENSON         CLEAR     43  23  45 W9        29.84F
ORTONVILLE     CLOUDY    43  25  49 MISG      29.83S
MADISON        CLOUDY    43  25  49 SW7       29.84F
WILLMAR        FAIR      43  28  56 SW8       29.85F
$$
MNZ033>034-036-042>043-049>051-058-059-200000-
   Central Minnesota

CITY           SKY/WX    TMP DP  RH WIND       PRES   REMARKS
ST CLOUD       CLEAR     34  25  69 S3        29.84F
SAUK CENTRE    FAIR      33  27  79 S6        29.82F WCI  28
PAYNESVILLE    CLEAR     37  29  73 S5        29.84F
AITKIN         CLEAR     27  19  74 CALM      29.81F
PINE RIVER     CLEAR     28  19  69 CALM      29.84S
BRAINERD       CLEAR     31  21  66 S5        29.81F WCI  26
STAPLES        CLOUDY    34  23  64 S3        29.80F
LONG PRAIRIE   FAIR      32  28  86 SE5       29.82F WCI  27
LITTLE FALLS   CLEAR     32  19  59 CALM      29.83F
LITCHFIELD     CLEAR     39  28  65 CALM      29.85F
BUFFALO        CLEAR     37  25  60 CALM      29.86F
MAPLE LAKE     CLEAR     37  28  70 CALM      29.86F
HUTCHINSON     CLEAR     40  27  59 SW3       29.87S
$$
MNZ037-044-045-052-053-200000-
   East Central Minnesota

CITY           SKY/WX    TMP DP  RH WIND       PRES   REMARKS
PRINCETON      CLEAR     34  23  64 CALM      29.85F
MORA           CLEAR     32  21  64 CALM      29.87S
CAMBRIDGE      CLEAR     34  21  60 CALM      29.86F
RUSH CITY      CLEAR     30  19  64 S3        29.87S
MOOSE LAKE     CLEAR     30  18  59 S5        29.83S WCI  25
HINCKLEY       FAIR      30  21  69 S3        29.86S
CLOQUET        CLEAR     25  14  63 CALM      29.82F
MCGREGOR       CLEAR     30  21  69 S3        29.83F
$$
MNZ071>073-080-081-089-090-097-098-200000-
   Southwest Minnesota

CITY           SKY/WX    TMP DP  RH WIND       PRES   REMARKS
MONTEVIDEO     CLOUDY    45  23  42 W7        29.85S
GRANITE FALLS  CLOUDY    45  25  46 SW9       29.87S
CANBY          CLOUDY    44  25  47 SW7       29.85F
MARSHALL       CLOUDY    45  24  43 SW13      29.86F
REDWOOD FALLS  CLOUDY    43  23  45 SW9       29.86F
OLIVIA         CLEAR     39  25  56 SW6       29.85S
PIPESTONE      CLOUDY    37  25  60 S7        29.87F
WINDOM         CLOUDY    43  23  45 S8        29.90S
WORTHINGTON    CLOUDY    42  25  50 S8        29.91S
JACKSON        CLOUDY    41  23  48 CALM      29.91F
SLAYTON        CLOUDY    40  25  53 SW9       29.89F
$$
MNZ065>067-074>077-082>085-091>093-200000-
   South Central Minnesota

CITY           SKY/WX    TMP DP  RH WIND       PRES   REMARKS
MANKATO        CLEAR     42  25  50 SW10      29.90S
NEW ULM        CLEAR     43  23  45 CALM      29.88S
ST JAMES       CLEAR     43  25  49 SW5       29.91S
FAIRMONT       CLEAR     40  26  57 S6        29.92F
GLENCOE        CLEAR     41  28  58 S5        29.85F
FARIBAULT      CLEAR     39  27  60 S6        29.89F
OWATONNA       CLEAR     37  28  70 S10       29.90F
WASECA         CLEAR     36  27  69 S7        29.91F
ALBERT LEA     CLEAR     41  25  52 S7        29.92F
$$
MNZ078>079-086>088-094>096-200000-
   Southeast Minnesota

CITY           SKY/WX    TMP DP  RH WIND       PRES   REMARKS
ROCHESTER      CLEAR     34  26  72 S10       29.92F WCI  26
RED WING       CLEAR     37  21  52 S3        29.90F
STANTON        CLEAR     34  26  70 S5        29.88F WCI  30
DODGE CENTER   CLEAR     36  27  69 S10       29.91F
WINONA         CLEAR     36  25  64 CALM      29.95F
AUSTIN         CLEAR     36  27  69 S8        29.93F
PRESTON        CLEAR     34  24  67 SW9       29.94F WCI  26
$$
ABBREVIATIONS USED IN REMARKS
   TC - TEMPERATURES IN CELSIUS
  WCI - WIND CHILL INDEX
   HX - HEAT INDEX
  VSB - VISIBILITY
$$




USA.gov is the U.S. government's official web portal to all federal, state and local government web resources and services.